Time,TemperatureF,DewpointF,PressureIn,WindDirection,WindDirectionDegrees,WindSpeedMPH,WindSpeedGustMPH,Humidity,HourlyPrecipIn,Conditions,Clouds,dailyrainin,SoftwareType,DateUTC
2013-05-04 00:00:00,64.2,44.1,30.07,ESE,120,0.0,0.0,48,0.00,,OVC090,0.00,VWS V14.01,2013-05-04 04:00:00,
2013-05-04 00:01:00,64.2,44.1,30.07,ESE,120,0.0,0.0,48,0.00,,CLR,0.00,VWS V14.01,2013-05-04 04:01:00,
2013-05-04 00:02:00,64.0,43.9,30.07,ESE,120,0.0,0.0,48,0.00,,CLR,0.00,VWS V14.01,2013-05-04 04:02:00,
2013-05-04 00:07:00,63.7,43.7,30.07,SE,128,0.0,0.0,48,0.00,,CLR,0.00,VWS V14.01,2013-05-04 04:07:00,
2013-05-04 00:12:00,63.5,44.0,30.07,South,175,0.0,0.0,49,0.00,,CLR,0.00,VWS V14.01,2013-05-04 04:12:00,
2013-05-04 00:15:00,63.5,44.0,30.07,South,175,0.0,0.0,49,0.00,,OVC090,0.00,VWS V14.01,2013-05-04 04:15:00,
2013-05-04 00:17:00,63.4,43.9,30.07,ENE,59,0.0,1.0,49,0.00,,CLR,0.00,VWS V14.01,2013-05-04 04:17:00,
2013-05-04 00:22:00,63.2,43.7,30.07,ENE,69,0.0,2.0,49,0.00,,CLR,0.00,VWS V14.01,2013-05-04 04:22:00,
2013-05-04 00:27:00,63.1,43.7,30.07,ENE,69,0.0,2.0,49,0.00,,CLR,0.00,VWS V14.01,2013-05-04 04:27:00,
2013-05-04 00:30:00,62.9,44.0,30.07,ENE,69,0.0,0.0,50,0.00,,OVC090,0.00,VWS V14.01,2013-05-04 04:30:00,
2013-05-04 00:33:00,62.7,43.8,30.07,ENE,69,0.0,0.0,50,0.00,,CLR,0.00,VWS V14.01,2013-05-04 04:33:00,
2013-05-04 00:38:00,62.6,43.7,30.07,ENE,65,0.0,1.0,50,0.00,,CLR,0.00,VWS V14.01,2013-05-04 04:38:00,
2013-05-04 00:43:00,62.4,43.5,30.07,ESE,114,0.0,1.0,50,0.00,,CLR,0.00,VWS V14.01,2013-05-04 04:43:00,
2013-05-04 00:45:00,62.4,44.0,30.07,ESE,114,0.0,1.0,51,0.00,,OVC090,0.00,VWS V14.01,2013-05-04 04:45:00,
2013-05-04 00:48:00,62.4,44.0,30.07,ESE,114,0.0,0.0,51,0.00,,CLR,0.00,VWS V14.01,2013-05-04 04:48:00,
2013-05-04 00:53:00,62.1,44.3,30.07,ESE,114,0.0,0.0,52,0.00,,CLR,0.00,VWS V14.01,2013-05-04 04:53:00,
2013-05-04 00:58:00,61.8,44.0,30.07,ESE,114,0.0,0.0,52,0.00,,CLR,0.00,VWS V14.01,2013-05-04 04:58:00,
2013-05-04 01:00:00,61.6,43.8,30.08,ESE,114,0.0,0.0,52,0.00,,OVC090,0.00,VWS V14.01,2013-05-04 05:00:00,
2013-05-04 01:03:00,61.5,44.2,30.08,ESE,114,0.0,0.0,53,0.00,,CLR,0.00,VWS V14.01,2013-05-04 05:03:00,
2013-05-04 01:08:00,61.3,44.0,30.08,ESE,116,0.0,0.0,53,0.00,,CLR,0.00,VWS V14.01,2013-05-04 05:08:00,
2013-05-04 01:13:00,61.0,44.2,30.08,ESE,116,0.0,0.0,54,0.00,,CLR,0.00,VWS V14.01,2013-05-04 05:13:00,
2013-05-04 01:15:00,61.0,44.2,30.08,East,92,0.0,0.0,54,0.00,,OVC090,0.00,VWS V14.01,2013-05-04 05:15:00,
2013-05-04 01:18:00,60.9,44.6,30.08,East,90,0.0,0.0,55,0.00,,CLR,0.00,VWS V14.01,2013-05-04 05:18:00,
2013-05-04 01:23:00,60.5,44.3,30.08,East,92,0.0,0.0,55,0.00,,CLR,0.00,VWS V14.01,2013-05-04 05:23:00,
2013-05-04 01:28:00,60.5,44.3,30.08,East,92,0.0,0.0,55,0.00,,CLR,0.00,VWS V14.01,2013-05-04 05:28:00,
2013-05-04 01:30:00,60.5,43.8,30.07,East,92,0.0,0.0,54,0.00,,OVC090,0.00,VWS V14.01,2013-05-04 05:30:00,
2013-05-04 01:33:00,60.5,44.3,30.07,East,92,0.0,0.0,55,0.00,,CLR,0.00,VWS V14.01,2013-05-04 05:33:00,
2013-05-04 01:38:00,60.4,44.2,30.07,ESE,116,0.0,0.0,55,0.00,,CLR,0.00,VWS V14.01,2013-05-04 05:38:00,
2013-05-04 01:43:00,60.4,44.2,30.07,ESE,116,0.0,0.0,55,0.00,,CLR,0.00,VWS V14.01,2013-05-04 05:43:00,
2013-05-04 01:45:00,60.2,44.0,30.07,ESE,116,0.0,0.0,55,0.00,,OVC090,0.00,VWS V14.01,2013-05-04 05:45:00,
2013-05-04 01:48:00,60.2,44.0,30.07,ESE,119,0.0,2.0,55,0.00,,CLR,0.00,VWS V14.01,2013-05-04 05:48:00,
2013-05-04 01:53:00,60.2,44.0,30.07,ESE,117,0.0,2.0,55,0.00,,CLR,0.00,VWS V14.01,2013-05-04 05:53:00,
2013-05-04 01:58:00,59.9,43.7,30.07,ESE,117,0.0,0.0,55,0.00,,CLR,0.00,VWS V14.01,2013-05-04 05:58:00,
2013-05-04 02:00:00,59.9,44.2,30.07,ESE,117,0.0,0.0,56,0.00,,OVC090,0.00,VWS V14.01,2013-05-04 06:00:00,
2013-05-04 02:03:00,59.8,44.1,30.07,ESE,117,0.0,0.0,56,0.00,,CLR,0.00,VWS V14.01,2013-05-04 06:03:00,
2013-05-04 02:08:00,59.6,43.9,30.07,ESE,117,0.0,0.0,56,0.00,,CLR,0.00,VWS V14.01,2013-05-04 06:08:00,
2013-05-04 02:13:00,59.3,44.1,30.07,ESE,117,0.0,0.0,57,0.00,,CLR,0.00,VWS V14.01,2013-05-04 06:13:00,
2013-05-04 02:15:00,59.3,44.1,30.07,ESE,117,0.0,0.0,57,0.00,,OVC090,0.00,VWS V14.01,2013-05-04 06:15:00,
2013-05-04 02:18:00,59.2,44.0,30.07,ESE,117,0.0,0.0,57,0.00,,CLR,0.00,VWS V14.01,2013-05-04 06:18:00,
2013-05-04 02:23:00,59.0,44.3,30.07,ESE,117,0.0,0.0,58,0.00,,CLR,0.00,VWS V14.01,2013-05-04 06:23:00,
2013-05-04 02:28:00,58.7,43.5,30.07,ESE,117,0.0,0.0,57,0.00,,CLR,0.00,VWS V14.01,2013-05-04 06:28:00,
2013-05-04 02:30:00,58.7,43.5,30.06,ESE,117,0.0,0.0,57,0.00,,OVC090,0.00,VWS V14.01,2013-05-04 06:30:00,
2013-05-04 02:33:00,58.6,43.9,30.06,ESE,117,0.0,0.0,58,0.00,,CLR,0.00,VWS V14.01,2013-05-04 06:33:00,
2013-05-04 02:39:00,58.4,43.7,30.06,ESE,117,0.0,0.0,58,0.00,,CLR,0.00,VWS V14.01,2013-05-04 06:39:00,
2013-05-04 02:44:00,58.3,43.6,30.06,ESE,117,0.0,0.0,58,0.00,,CLR,0.00,VWS V14.01,2013-05-04 06:44:00,
2013-05-04 02:45:00,58.3,43.6,30.06,ESE,117,0.0,0.0,58,0.00,,OVC090,0.00,VWS V14.01,2013-05-04 06:45:00,
2013-05-04 02:49:00,58.1,43.9,30.06,ESE,117,0.0,0.0,59,0.00,,CLR,0.00,VWS V14.01,2013-05-04 06:49:00,
2013-05-04 02:54:00,58.0,43.8,30.06,East,89,0.0,1.0,59,0.00,,CLR,0.00,VWS V14.01,2013-05-04 06:54:00,
2013-05-04 02:59:00,58.0,43.8,30.06,East,80,0.0,1.0,59,0.00,,CLR,0.00,VWS V14.01,2013-05-04 06:59:00,
2013-05-04 03:00:00,58.0,43.8,30.06,East,80,0.0,1.0,59,0.00,,OVC090,0.00,VWS V14.01,2013-05-04 07:00:00,
2013-05-04 03:04:00,57.8,43.6,30.06,East,80,0.0,0.0,59,0.00,,CLR,0.00,VWS V14.01,2013-05-04 07:04:00,
2013-05-04 03:09:00,57.8,43.6,30.06,East,79,0.0,0.0,59,0.00,,CLR,0.00,VWS V14.01,2013-05-04 07:09:00,
2013-05-04 03:14:00,57.6,43.4,30.06,East,82,0.0,0.0,59,0.00,,CLR,0.00,VWS V14.01,2013-05-04 07:14:00,
2013-05-04 03:15:00,57.6,43.4,30.06,East,82,0.0,0.0,59,0.00,,OVC090,0.00,VWS V14.01,2013-05-04 07:15:00,
2013-05-04 03:19:00,57.6,43.4,30.06,East,82,0.0,0.0,59,0.00,,CLR,0.00,VWS V14.01,2013-05-04 07:19:00,
2013-05-04 03:24:00,57.5,43.7,30.06,East,82,0.0,0.0,60,0.00,,CLR,0.00,VWS V14.01,2013-05-04 07:24:00,
2013-05-04 03:29:00,57.3,43.5,30.06,East,82,0.0,0.0,60,0.00,,CLR,0.00,VWS V14.01,2013-05-04 07:29:00,
2013-05-04 03:30:00,57.3,43.5,30.06,East,82,0.0,0.0,60,0.00,,OVC090,0.00,VWS V14.01,2013-05-04 07:30:00,
2013-05-04 03:34:00,57.2,43.9,30.06,East,82,0.0,0.0,61,0.00,,CLR,0.00,VWS V14.01,2013-05-04 07:34:00,
2013-05-04 03:39:00,57.0,43.7,30.06,East,80,0.0,0.0,61,0.00,,CLR,0.00,VWS V14.01,2013-05-04 07:39:00,
2013-05-04 03:44:00,56.9,43.6,30.06,East,80,0.0,0.0,61,0.00,,CLR,0.00,VWS V14.01,2013-05-04 07:44:00,
2013-05-04 03:45:00,56.9,43.6,30.06,East,80,0.0,0.0,61,0.00,,OVC090,0.00,VWS V14.01,2013-05-04 07:45:00,
2013-05-04 03:49:00,56.7,43.4,30.06,East,82,0.0,0.0,61,0.00,,CLR,0.00,VWS V14.01,2013-05-04 07:49:00,
2013-05-04 03:54:00,56.7,43.4,30.06,ENE,65,0.0,3.0,61,0.00,,CLR,0.00,VWS V14.01,2013-05-04 07:54:00,
2013-05-04 03:59:00,56.6,43.3,30.06,ENE,76,0.0,3.0,61,0.00,,CLR,0.00,VWS V14.01,2013-05-04 07:59:00,
2013-05-04 04:00:00,56.6,43.3,30.06,ENE,76,0.0,3.0,61,0.00,,OVC090,0.00,VWS V14.01,2013-05-04 08:00:00,
2013-05-04 04:04:00,56.7,43.0,30.06,ENE,76,0.0,1.0,60,0.00,,CLR,0.00,VWS V14.01,2013-05-04 08:04:00,
2013-05-04 04:09:00,56.6,43.3,30.06,ENE,76,0.0,0.0,61,0.00,,CLR,0.00,VWS V14.01,2013-05-04 08:09:00,
2013-05-04 04:14:00,56.5,43.2,30.05,East,80,0.0,0.0,61,0.00,,CLR,0.00,VWS V14.01,2013-05-04 08:14:00,
2013-05-04 04:15:00,56.5,43.2,30.05,East,80,0.0,0.0,61,0.00,,OVC090,0.00,VWS V14.01,2013-05-04 08:15:00,
2013-05-04 04:19:00,56.5,43.2,30.05,East,79,0.0,0.0,61,0.00,,CLR,0.00,VWS V14.01,2013-05-04 08:19:00,
2013-05-04 04:24:00,56.5,43.2,30.05,East,79,0.0,0.0,61,0.00,,CLR,0.00,VWS V14.01,2013-05-04 08:24:00,
2013-05-04 04:29:00,56.5,43.2,30.06,East,80,0.0,0.0,61,0.00,,CLR,0.00,VWS V14.01,2013-05-04 08:29:00,
2013-05-04 04:30:00,56.5,43.2,30.06,East,80,0.0,0.0,61,0.00,,OVC090,0.00,VWS V14.01,2013-05-04 08:30:00,
2013-05-04 04:35:00,56.3,43.0,30.06,East,80,0.0,0.0,61,0.00,,CLR,0.00,VWS V14.01,2013-05-04 08:35:00,
2013-05-04 04:40:00,56.3,42.6,30.06,ENE,78,0.0,1.0,60,0.00,,CLR,0.00,VWS V14.01,2013-05-04 08:40:00,
2013-05-04 04:45:00,56.3,43.0,30.06,East,83,2.0,3.0,61,0.00,,CLR,0.00,VWS V14.01,2013-05-04 08:45:00,
2013-05-04 04:50:00,56.3,43.0,30.06,ENE,65,0.0,5.0,61,0.00,,CLR,0.00,VWS V14.01,2013-05-04 08:50:00,
2013-05-04 04:55:00,56.2,43.0,30.06,East,88,0.0,5.0,61,0.00,,CLR,0.00,VWS V14.01,2013-05-04 08:55:00,
2013-05-04 05:00:00,56.0,42.8,30.06,East,88,0.0,1.0,61,0.00,,CLR,0.00,VWS V14.01,2013-05-04 09:00:00,
2013-05-04 05:05:00,55.7,42.5,30.06,East,79,0.0,3.0,61,0.00,,CLR,0.00,VWS V14.01,2013-05-04 09:05:00,
2013-05-04 05:10:00,55.6,42.8,30.06,East,85,0.0,2.0,62,0.00,,CLR,0.00,VWS V14.01,2013-05-04 09:10:00,
2013-05-04 05:15:00,55.4,42.2,30.06,ENE,75,0.0,3.0,61,0.00,,CLR,0.00,VWS V14.01,2013-05-04 09:15:00,
2013-05-04 05:20:00,55.4,42.2,30.06,East,82,0.0,3.0,61,0.00,,CLR,0.00,VWS V14.01,2013-05-04 09:20:00,
2013-05-04 05:25:00,55.4,42.2,30.06,ENE,78,5.0,5.0,61,0.00,,CLR,0.00,VWS V14.01,2013-05-04 09:25:00,
2013-05-04 05:30:00,55.4,42.2,30.06,ENE,72,0.0,6.0,61,0.00,,CLR,0.00,VWS V14.01,2013-05-04 09:30:00,
2013-05-04 05:35:00,55.3,42.1,30.06,ENE,65,0.0,6.0,61,0.00,,CLR,0.00,VWS V14.01,2013-05-04 09:35:00,
2013-05-04 05:40:00,55.3,42.1,30.06,East,89,0.0,5.0,61,0.00,,CLR,0.00,VWS V14.01,2013-05-04 09:40:00,
2013-05-04 05:45:00,55.1,41.9,30.06,ENE,73,0.0,8.0,61,0.00,,CLR,0.00,VWS V14.01,2013-05-04 09:45:00,
2013-05-04 05:50:00,55.3,41.7,30.06,East,80,0.0,8.0,60,0.00,,CLR,0.00,VWS V14.01,2013-05-04 09:50:00,
2013-05-04 05:55:00,55.3,41.2,30.06,ENE,68,1.0,8.0,59,0.00,,CLR,0.00,VWS V14.01,2013-05-04 09:55:00,
2013-05-04 06:00:00,55.1,41.5,30.06,NE,40,0.0,8.0,60,0.00,,CLR,0.00,VWS V14.01,2013-05-04 10:00:00,
2013-05-04 06:05:00,55.1,40.6,30.06,East,86,0.0,4.0,58,0.00,,CLR,0.00,VWS V14.01,2013-05-04 10:05:00,
2013-05-04 06:10:00,55.3,40.3,30.06,ENE,61,1.0,7.0,57,0.00,,CLR,0.00,VWS V14.01,2013-05-04 10:10:00,
2013-05-04 06:15:00,55.4,40.4,30.07,East,85,0.0,4.0,57,0.00,,CLR,0.00,VWS V14.01,2013-05-04 10:15:00,
2013-05-04 06:20:00,55.3,40.3,30.07,ENE,76,0.0,2.0,57,0.00,,CLR,0.00,VWS V14.01,2013-05-04 10:20:00,
2013-05-04 06:25:00,55.0,40.5,30.07,ENE,66,0.0,5.0,58,0.00,,CLR,0.00,VWS V14.01,2013-05-04 10:25:00,
2013-05-04 06:30:00,55.0,40.5,30.07,East,79,0.0,6.0,58,0.00,,CLR,0.00,VWS V14.01,2013-05-04 10:30:00,
2013-05-04 06:36:00,54.8,40.8,30.07,ENE,62,0.0,5.0,59,0.00,,CLR,0.00,VWS V14.01,2013-05-04 10:36:00,
2013-05-04 06:41:00,54.5,40.9,30.07,ENE,75,0.0,3.0,60,0.00,,CLR,0.00,VWS V14.01,2013-05-04 10:41:00,
2013-05-04 06:45:00,54.4,40.4,30.07,ENE,75,2.0,6.0,59,0.00,,OVC090,0.00,VWS V14.01,2013-05-04 10:45:00,
2013-05-04 06:46:00,54.4,40.4,30.07,ENE,78,0.0,6.0,59,0.00,,CLR,0.00,VWS V14.01,2013-05-04 10:46:00,
2013-05-04 06:51:00,54.4,40.4,30.07,ESE,103,2.0,6.0,59,0.00,,CLR,0.00,VWS V14.01,2013-05-04 10:51:00,
2013-05-04 06:56:00,54.2,40.6,30.07,ENE,76,3.0,4.0,60,0.00,,CLR,0.00,VWS V14.01,2013-05-04 10:56:00,
2013-05-04 07:00:00,54.2,40.2,30.07,East,79,0.0,4.0,59,0.00,,OVC090,0.00,VWS V14.01,2013-05-04 11:00:00,
2013-05-04 07:01:00,54.2,40.2,30.07,East,89,0.0,4.0,59,0.00,,CLR,0.00,VWS V14.01,2013-05-04 11:01:00,
2013-05-04 07:06:00,54.2,40.2,30.07,East,83,0.0,5.0,59,0.00,,CLR,0.00,VWS V14.01,2013-05-04 11:06:00,
2013-05-04 07:11:00,54.1,39.7,30.07,East,86,0.0,8.0,58,0.00,,CLR,0.00,VWS V14.01,2013-05-04 11:11:00,
2013-05-04 07:15:00,54.1,39.7,30.07,ENE,75,0.0,8.0,58,0.00,,OVC090,0.00,VWS V14.01,2013-05-04 11:15:00,
2013-05-04 07:16:00,54.1,39.7,30.07,East,83,0.0,8.0,58,0.00,,CLR,0.00,VWS V14.01,2013-05-04 11:16:00,
2013-05-04 07:21:00,54.2,39.8,30.07,East,79,0.0,6.0,58,0.00,,CLR,0.00,VWS V14.01,2013-05-04 11:21:00,
2013-05-04 07:26:00,54.2,39.8,30.07,ENE,69,0.0,6.0,58,0.00,,CLR,0.00,VWS V14.01,2013-05-04 11:26:00,
2013-05-04 07:30:00,54.2,40.2,30.08,NE,55,0.0,6.0,59,0.00,,OVC090,0.00,VWS V14.01,2013-05-04 11:30:00,
2013-05-04 07:31:00,54.2,40.2,30.08,NE,56,0.0,3.0,59,0.00,,CLR,0.00,VWS V14.01,2013-05-04 11:31:00,
2013-05-04 07:36:00,54.2,40.6,30.08,East,96,0.0,3.0,60,0.00,,CLR,0.00,VWS V14.01,2013-05-04 11:36:00,
2013-05-04 07:41:00,54.2,40.6,30.08,ENE,78,0.0,2.0,60,0.00,,CLR,0.00,VWS V14.01,2013-05-04 11:41:00,
2013-05-04 07:45:00,54.2,40.6,30.08,ENE,73,0.0,3.0,60,0.00,,OVC090,0.00,VWS V14.01,2013-05-04 11:45:00,
2013-05-04 07:47:00,54.2,41.1,30.08,ENE,64,0.0,3.0,61,0.00,,CLR,0.00,VWS V14.01,2013-05-04 11:47:00,
2013-05-04 07:52:00,54.5,40.9,30.08,ESE,114,5.0,7.0,60,0.00,,CLR,0.00,VWS V14.01,2013-05-04 11:52:00,
2013-05-04 07:57:00,55.1,41.5,30.08,East,83,0.0,7.0,60,0.00,,CLR,0.00,VWS V14.01,2013-05-04 11:57:00,
2013-05-04 08:00:00,55.3,41.2,30.08,East,83,0.0,7.0,59,0.00,,OVC090,0.00,VWS V14.01,2013-05-04 12:00:00,
2013-05-04 08:02:00,55.6,41.1,30.08,ENE,72,0.0,3.0,58,0.00,,CLR,0.00,VWS V14.01,2013-05-04 12:02:00,
2013-05-04 08:07:00,55.9,41.3,30.08,ENE,61,0.0,7.0,58,0.00,,CLR,0.00,VWS V14.01,2013-05-04 12:07:00,
2013-05-04 08:13:00,55.6,41.1,30.08,East,80,0.0,7.0,58,0.00,,CLR,0.00,VWS V14.01,2013-05-04 12:13:00,
2013-05-04 08:15:00,55.4,40.9,30.08,East,79,0.0,7.0,58,0.00,,OVC090,0.00,VWS V14.01,2013-05-04 12:15:00,
2013-05-04 08:18:00,55.6,41.1,30.08,ENE,69,0.0,6.0,58,0.00,,CLR,0.00,VWS V14.01,2013-05-04 12:18:00,
2013-05-04 08:23:00,55.9,40.9,30.08,ENE,69,0.0,6.0,57,0.00,,CLR,0.00,VWS V14.01,2013-05-04 12:23:00,
2013-05-04 08:28:00,56.2,40.3,30.08,East,79,0.0,8.0,55,0.00,,CLR,0.00,VWS V14.01,2013-05-04 12:28:00,
2013-05-04 08:30:00,56.3,40.8,30.08,ENE,66,0.0,8.0,56,0.00,,OVC090,0.00,VWS V14.01,2013-05-04 12:30:00,
2013-05-04 08:34:00,56.6,40.2,30.08,ESE,102,0.0,8.0,54,0.00,,CLR,0.00,VWS V14.01,2013-05-04 12:34:00,
2013-05-04 08:39:00,57.0,40.1,30.08,SE,137,0.0,8.0,53,0.00,,CLR,0.00,VWS V14.01,2013-05-04 12:39:00,
2013-05-04 08:44:00,57.2,39.8,30.08,ENE,61,0.0,7.0,52,0.00,,CLR,0.00,VWS V14.01,2013-05-04 12:44:00,
2013-05-04 08:45:00,57.2,40.2,30.08,ENE,73,0.0,7.0,53,0.00,,OVC090,0.00,VWS V14.01,2013-05-04 12:45:00,
2013-05-04 08:49:00,57.2,38.2,30.08,SE,126,0.0,3.0,49,0.00,,CLR,0.00,VWS V14.01,2013-05-04 12:49:00,
2013-05-04 08:54:00,57.0,39.1,30.08,East,80,0.0,3.0,51,0.00,,CLR,0.00,VWS V14.01,2013-05-04 12:54:00,
2013-05-04 08:59:00,57.0,38.0,30.08,ESE,112,0.0,2.0,49,0.00,,CLR,0.00,VWS V14.01,2013-05-04 12:59:00,
2013-05-04 09:00:00,57.0,38.0,30.08,East,100,1.0,2.0,49,0.00,,OVC090,0.00,VWS V14.01,2013-05-04 13:00:00,
2013-05-04 09:04:00,57.0,38.0,30.08,East,82,0.0,12.0,49,0.00,,CLR,0.00,VWS V14.01,2013-05-04 13:04:00,
2013-05-04 09:09:00,57.2,38.2,30.08,ENE,72,2.0,12.0,49,0.00,,CLR,0.00,VWS V14.01,2013-05-04 13:09:00,
2013-05-04 09:14:00,57.3,38.3,30.08,ESE,119,0.0,5.0,49,0.00,,CLR,0.00,VWS V14.01,2013-05-04 13:14:00,
2013-05-04 09:15:00,57.3,38.8,30.09,East,83,0.0,5.0,50,0.00,,OVC090,0.00,VWS V14.01,2013-05-04 13:15:00,
2013-05-04 09:19:00,57.8,38.8,30.09,ESE,109,0.0,7.0,49,0.00,,CLR,0.00,VWS V14.01,2013-05-04 13:19:00,
2013-05-04 09:24:00,58.3,39.2,30.09,NE,51,2.0,8.0,49,0.00,,CLR,0.00,VWS V14.01,2013-05-04 13:24:00,
2013-05-04 09:29:00,58.9,38.2,30.09,East,100,0.0,7.0,46,0.00,,CLR,0.00,VWS V14.01,2013-05-04 13:29:00,
2013-05-04 09:30:00,59.0,38.8,30.08,East,85,0.0,7.0,47,0.00,,OVC090,0.00,VWS V14.01,2013-05-04 13:30:00,
2013-05-04 09:34:00,59.3,38.5,30.08,ENE,73,0.0,6.0,46,0.00,,CLR,0.00,VWS V14.01,2013-05-04 13:34:00,
2013-05-04 09:39:00,59.5,39.8,30.08,South,184,2.0,7.0,48,0.00,,CLR,0.00,VWS V14.01,2013-05-04 13:39:00,
2013-05-04 09:44:00,59.6,39.9,30.08,East,97,0.0,7.0,48,0.00,,CLR,0.00,VWS V14.01,2013-05-04 13:44:00,
2013-05-04 09:45:00,59.6,40.4,30.08,East,96,0.0,5.0,49,0.00,,OVC090,0.00,VWS V14.01,2013-05-04 13:45:00,
2013-05-04 09:49:00,59.5,39.3,30.08,SE,144,0.0,6.0,47,0.00,,CLR,0.00,VWS V14.01,2013-05-04 13:49:00,
2013-05-04 09:54:00,59.5,39.3,30.08,East,96,0.0,1.0,47,0.00,,CLR,0.00,VWS V14.01,2013-05-04 13:54:00,
2013-05-04 09:59:00,59.9,39.6,30.08,ESE,102,0.0,1.0,47,0.00,,CLR,0.00,VWS V14.01,2013-05-04 13:59:00,
2013-05-04 10:00:00,59.9,39.6,30.08,ESE,114,0.0,1.0,47,0.00,,OVC090,0.00,VWS V14.01,2013-05-04 14:00:00,
2013-05-04 10:04:00,60.5,41.8,30.08,ESE,114,0.0,1.0,50,0.00,,CLR,0.00,VWS V14.01,2013-05-04 14:04:00,
2013-05-04 10:09:00,60.7,40.4,30.08,East,79,0.0,2.0,47,0.00,,CLR,0.00,VWS V14.01,2013-05-04 14:09:00,
2013-05-04 10:14:00,60.7,40.9,30.08,ESE,107,0.0,5.0,48,0.00,,CLR,0.00,VWS V14.01,2013-05-04 14:14:00,
2013-05-04 10:15:00,60.7,40.9,30.08,ESE,117,0.0,5.0,48,0.00,,OVC090,0.00,VWS V14.01,2013-05-04 14:15:00,
2013-05-04 10:19:00,60.7,39.8,30.08,SE,141,0.0,2.0,46,0.00,,CLR,0.00,VWS V14.01,2013-05-04 14:19:00,
2013-05-04 10:24:00,60.7,41.5,30.08,ESE,119,0.0,2.0,49,0.00,,CLR,0.00,VWS V14.01,2013-05-04 14:24:00,
2013-05-04 10:29:00,61.2,41.4,30.08,East,89,0.0,6.0,48,0.00,,CLR,0.00,VWS V14.01,2013-05-04 14:29:00,
2013-05-04 10:30:00,61.2,41.4,30.08,SSE,162,0.0,6.0,48,0.00,,OVC090,0.00,VWS V14.01,2013-05-04 14:30:00,
2013-05-04 10:34:00,61.6,42.3,30.08,SE,145,0.0,6.0,49,0.00,,CLR,0.00,VWS V14.01,2013-05-04 14:34:00,
2013-05-04 10:39:00,62.1,41.1,30.08,East,85,0.0,3.0,46,0.00,,CLR,0.00,VWS V14.01,2013-05-04 14:39:00,
2013-05-04 10:44:00,62.0,42.1,30.07,ENE,71,0.0,6.0,48,0.00,,CLR,0.00,VWS V14.01,2013-05-04 14:44:00,
2013-05-04 10:45:00,62.1,42.2,30.07,ENE,68,0.0,6.0,48,0.00,,OVC090,0.00,VWS V14.01,2013-05-04 14:45:00,
2013-05-04 10:49:00,62.6,42.1,30.07,East,86,2.0,2.0,47,0.00,,CLR,0.00,VWS V14.01,2013-05-04 14:49:00,
2013-05-04 10:54:00,63.7,42.5,30.07,SSW,199,10.0,10.0,46,0.00,,CLR,0.00,VWS V14.01,2013-05-04 14:54:00,
2013-05-04 10:59:00,64.0,43.9,30.07,SE,126,0.0,10.0,48,0.00,,CLR,0.00,VWS V14.01,2013-05-04 14:59:00,
2013-05-04 11:00:00,64.0,43.9,30.07,SE,127,0.0,10.0,48,0.00,,OVC090,0.00,VWS V14.01,2013-05-04 15:00:00,
2013-05-04 11:04:00,64.3,43.1,30.07,East,80,0.0,5.0,46,0.00,,CLR,0.00,VWS V14.01,2013-05-04 15:04:00,
2013-05-04 11:09:00,64.3,43.7,30.07,ESE,117,0.0,5.0,47,0.00,,CLR,0.00,VWS V14.01,2013-05-04 15:09:00,
2013-05-04 11:14:00,64.2,42.4,30.07,ENE,59,1.0,12.0,45,0.00,,CLR,0.00,VWS V14.01,2013-05-04 15:14:00,
2013-05-04 11:15:00,64.2,42.4,30.07,ENE,65,0.0,12.0,45,0.00,,OVC090,0.00,VWS V14.01,2013-05-04 15:15:00,
2013-05-04 11:19:00,64.5,43.3,30.07,ESE,119,0.0,12.0,46,0.00,,CLR,0.00,VWS V14.01,2013-05-04 15:19:00,
2013-05-04 11:24:00,65.5,44.2,30.07,SSE,162,0.0,7.0,46,0.00,,CLR,0.00,VWS V14.01,2013-05-04 15:24:00,
2013-05-04 11:29:00,65.6,43.1,30.07,East,90,0.0,7.0,44,0.00,,CLR,0.00,VWS V14.01,2013-05-04 15:29:00,
2013-05-04 11:30:00,65.6,43.1,30.07,East,90,0.0,7.0,44,0.00,,OVC090,0.00,VWS V14.01,2013-05-04 15:30:00,
2013-05-04 11:34:00,65.2,42.8,30.07,SSE,164,0.0,7.0,44,0.00,,CLR,0.00,VWS V14.01,2013-05-04 15:34:00,
2013-05-04 11:40:00,64.7,43.5,30.07,SE,136,0.0,4.0,46,0.00,,CLR,0.00,VWS V14.01,2013-05-04 15:40:00,
2013-05-04 11:45:00,64.3,44.2,30.07,SE,138,0.0,8.0,48,0.00,,CLR,0.00,VWS V14.01,2013-05-04 15:45:00,
2013-05-04 11:50:00,64.5,44.4,30.07,East,90,0.0,8.0,48,0.00,,CLR,0.00,VWS V14.01,2013-05-04 15:50:00,
2013-05-04 11:55:00,64.7,44.6,30.07,East,96,0.0,6.0,48,0.00,,CLR,0.00,VWS V14.01,2013-05-04 15:55:00,
2013-05-04 12:00:00,65.2,44.5,30.06,South,174,1.0,6.0,47,0.00,,CLR,0.00,VWS V14.01,2013-05-04 16:00:00,
2013-05-04 12:05:00,65.2,43.9,30.06,SE,130,1.0,4.0,46,0.00,,CLR,0.00,VWS V14.01,2013-05-04 16:05:00,
2013-05-04 12:10:00,66.0,44.7,30.06,SE,138,0.0,1.0,46,0.00,,CLR,0.00,VWS V14.01,2013-05-04 16:10:00,
2013-05-04 12:15:00,66.8,47.0,30.05,South,181,0.0,2.0,49,0.00,,CLR,0.00,VWS V14.01,2013-05-04 16:15:00,
2013-05-04 12:20:00,66.9,45.5,30.05,SSE,160,1.0,10.0,46,0.00,,CLR,0.00,VWS V14.01,2013-05-04 16:20:00,
2013-05-04 12:25:00,66.8,44.8,30.05,ENE,69,0.0,10.0,45,0.00,,CLR,0.00,VWS V14.01,2013-05-04 16:25:00,
2013-05-04 12:30:00,66.8,43.6,30.05,East,100,0.0,10.0,43,0.00,,CLR,0.00,VWS V14.01,2013-05-04 16:30:00,
2013-05-04 12:35:00,66.6,45.2,30.05,East,88,0.0,10.0,46,0.00,,CLR,0.00,VWS V14.01,2013-05-04 16:35:00,
2013-05-04 12:40:00,67.1,45.1,30.05,SE,130,0.0,7.0,45,0.00,,CLR,0.00,VWS V14.01,2013-05-04 16:40:00,
2013-05-04 12:45:00,66.6,44.0,30.05,East,85,0.0,8.0,44,0.00,,CLR,0.00,VWS V14.01,2013-05-04 16:45:00,
2013-05-04 12:50:00,66.6,45.2,30.05,ENE,72,0.0,7.0,46,0.00,,CLR,0.00,VWS V14.01,2013-05-04 16:50:00,
2013-05-04 12:55:00,66.8,43.6,30.05,ESE,106,0.0,5.0,43,0.00,,CLR,0.00,VWS V14.01,2013-05-04 16:55:00,
2013-05-04 13:00:00,66.8,44.8,30.04,ESE,121,0.0,8.0,45,0.00,,CLR,0.00,VWS V14.01,2013-05-04 17:00:00,
2013-05-04 13:05:00,66.9,43.7,30.04,ESE,123,0.0,8.0,43,0.00,,CLR,0.00,VWS V14.01,2013-05-04 17:05:00,
2013-05-04 13:10:00,66.9,45.5,30.04,SE,145,0.0,3.0,46,0.00,,CLR,0.00,VWS V14.01,2013-05-04 17:10:00,
2013-05-04 13:15:00,67.3,45.8,30.04,NNE,30,0.0,1.0,46,0.00,,CLR,0.00,VWS V14.01,2013-05-04 17:15:00,
2013-05-04 13:20:00,67.6,46.1,30.04,SSE,148,1.0,3.0,46,0.00,,CLR,0.00,VWS V14.01,2013-05-04 17:20:00,
2013-05-04 13:25:00,68.1,43.5,30.04,East,79,0.0,6.0,41,0.00,,CLR,0.00,VWS V14.01,2013-05-04 17:25:00,
2013-05-04 13:30:00,67.9,42.7,30.04,SE,141,0.0,6.0,40,0.00,,CLR,0.00,VWS V14.01,2013-05-04 17:30:00,
2013-05-04 13:35:00,68.8,44.8,30.04,East,83,0.0,2.0,42,0.00,,CLR,0.00,VWS V14.01,2013-05-04 17:35:00,
2013-05-04 13:40:00,69.1,45.7,30.04,ENE,76,0.0,10.0,43,0.00,,CLR,0.00,VWS V14.01,2013-05-04 17:40:00,
2013-05-04 13:45:00,69.1,45.7,30.03,East,89,0.0,12.0,43,0.00,,OVC090,0.00,VWS V14.01,2013-05-04 17:45:00,
2013-05-04 13:46:00,69.1,45.1,30.03,ENE,76,0.0,12.0,42,0.00,,CLR,0.00,VWS V14.01,2013-05-04 17:46:00,
2013-05-04 13:51:00,69.1,45.1,30.03,ENE,69,10.0,12.0,42,0.00,,CLR,0.00,VWS V14.01,2013-05-04 17:51:00,
2013-05-04 13:56:00,69.3,45.2,30.03,SE,127,0.0,11.0,42,0.00,,CLR,0.00,VWS V14.01,2013-05-04 17:56:00,
2013-05-04 14:00:00,69.1,44.4,30.03,East,89,2.0,12.0,41,0.00,,OVC090,0.00,VWS V14.01,2013-05-04 18:00:00,
2013-05-04 14:01:00,69.1,45.7,30.03,ENE,73,0.0,12.0,43,0.00,,CLR,0.00,VWS V14.01,2013-05-04 18:01:00,
2013-05-04 14:06:00,68.3,45.6,30.03,East,79,5.0,12.0,44,0.00,,CLR,0.00,VWS V14.01,2013-05-04 18:06:00,
2013-05-04 14:11:00,68.3,45.0,30.03,East,82,4.0,10.0,43,0.00,,CLR,0.00,VWS V14.01,2013-05-04 18:11:00,
2013-05-04 14:15:00,68.1,44.8,30.03,ENE,73,2.0,10.0,43,0.00,,OVC090,0.00,VWS V14.01,2013-05-04 18:15:00,
2013-05-04 14:16:00,68.1,46.6,30.03,ESE,102,0.0,10.0,46,0.00,,CLR,0.00,VWS V14.01,2013-05-04 18:16:00,
2013-05-04 14:21:00,67.9,44.6,30.03,East,85,0.0,8.0,43,0.00,,CLR,0.00,VWS V14.01,2013-05-04 18:21:00,
2013-05-04 14:26:00,67.8,45.1,30.03,East,85,0.0,6.0,44,0.00,,CLR,0.00,VWS V14.01,2013-05-04 18:26:00,
2013-05-04 14:30:00,67.8,44.5,30.03,SE,131,0.0,11.0,43,0.00,,OVC090,0.00,VWS V14.01,2013-05-04 18:30:00,
2013-05-04 14:31:00,67.8,45.7,30.03,SSE,147,0.0,11.0,45,0.00,,CLR,0.00,VWS V14.01,2013-05-04 18:31:00,
2013-05-04 14:36:00,68.3,44.3,30.03,East,80,0.0,11.0,42,0.00,,CLR,0.00,VWS V14.01,2013-05-04 18:36:00,
2013-05-04 14:41:00,68.3,46.2,30.03,East,86,0.0,1.0,45,0.00,,CLR,0.00,VWS V14.01,2013-05-04 18:41:00,
2013-05-04 14:45:00,68.3,45.0,30.02,East,83,0.0,10.0,43,0.00,,OVC090,0.00,VWS V14.01,2013-05-04 18:45:00,
2013-05-04 14:46:00,68.3,45.0,30.02,East,92,4.0,10.0,43,0.00,,CLR,0.00,VWS V14.01,2013-05-04 18:46:00,
2013-05-04 14:51:00,68.9,46.1,30.02,East,95,7.0,10.0,44,0.00,,CLR,0.00,VWS V14.01,2013-05-04 18:51:00,
2013-05-04 14:56:00,68.9,44.9,30.02,SSE,147,1.0,10.0,42,0.00,,CLR,0.00,VWS V14.01,2013-05-04 18:56:00,
2013-05-04 15:00:00,68.9,46.1,30.01,East,89,0.0,10.0,44,0.00,,OVC090,0.00,VWS V14.01,2013-05-04 19:00:00,
2013-05-04 15:01:00,69.1,45.7,30.01,ESE,106,0.0,10.0,43,0.00,,CLR,0.00,VWS V14.01,2013-05-04 19:01:00,
2013-05-04 15:06:00,68.9,46.7,30.01,ENE,76,0.0,7.0,45,0.00,,CLR,0.00,VWS V14.01,2013-05-04 19:06:00,
2013-05-04 15:11:00,69.1,46.3,30.01,SE,124,0.0,5.0,44,0.00,,CLR,0.00,VWS V14.01,2013-05-04 19:11:00,
2013-05-04 15:15:00,69.3,45.9,30.01,ENE,68,0.0,4.0,43,0.00,,OVC090,0.00,VWS V14.01,2013-05-04 19:15:00,
2013-05-04 15:16:00,69.3,46.5,30.01,SE,124,0.0,7.0,44,0.00,,CLR,0.00,VWS V14.01,2013-05-04 19:16:00,
2013-05-04 15:21:00,69.3,45.9,30.01,SE,136,0.0,8.0,43,0.00,,CLR,0.00,VWS V14.01,2013-05-04 19:21:00,
2013-05-04 15:26:00,69.6,47.9,30.01,ENE,65,0.0,3.0,46,0.00,,CLR,0.00,VWS V14.01,2013-05-04 19:26:00,
2013-05-04 15:30:00,69.8,46.3,30.01,ESE,117,3.0,11.0,43,0.00,,OVC090,0.00,VWS V14.01,2013-05-04 19:30:00,
2013-05-04 15:31:00,69.8,45.7,30.01,SSE,155,1.0,11.0,42,0.00,,CLR,0.00,VWS V14.01,2013-05-04 19:31:00,
2013-05-04 15:36:00,69.8,46.3,30.01,SSW,196,0.0,7.0,43,0.00,,CLR,0.00,VWS V14.01,2013-05-04 19:36:00,
2013-05-04 15:41:00,70.1,46.0,30.01,SSW,199,0.0,7.0,42,0.00,,CLR,0.00,VWS V14.01,2013-05-04 19:41:00,
2013-05-04 15:45:00,70.1,46.6,30.00,SE,134,0.0,7.0,43,0.00,,OVC090,0.00,VWS V14.01,2013-05-04 19:45:00,
2013-05-04 15:47:00,70.1,47.2,30.00,East,90,0.0,2.0,44,0.00,,CLR,0.00,VWS V14.01,2013-05-04 19:47:00,
2013-05-04 15:52:00,70.1,46.6,30.00,SE,141,0.0,8.0,43,0.00,,CLR,0.00,VWS V14.01,2013-05-04 19:52:00,
2013-05-04 15:57:00,70.1,47.2,30.00,ENE,73,0.0,3.0,44,0.00,,CLR,0.00,VWS V14.01,2013-05-04 19:57:00,
2013-05-04 16:00:00,70.1,46.6,30.00,SSE,158,0.0,3.0,43,0.00,,OVC090,0.00,VWS V14.01,2013-05-04 20:00:00,
2013-05-04 16:02:00,70.3,46.8,30.00,SE,124,0.0,1.0,43,0.00,,CLR,0.00,VWS V14.01,2013-05-04 20:02:00,
2013-05-04 16:07:00,70.3,46.8,30.00,SSE,161,0.0,5.0,43,0.00,,CLR,0.00,VWS V14.01,2013-05-04 20:07:00,
2013-05-04 16:12:00,70.1,46.6,30.00,East,89,2.0,6.0,43,0.00,,CLR,0.00,VWS V14.01,2013-05-04 20:12:00,
2013-05-04 16:15:00,70.1,47.2,30.00,East,96,0.0,6.0,44,0.00,,OVC090,0.00,VWS V14.01,2013-05-04 20:15:00,
2013-05-04 16:17:00,70.1,46.6,30.00,South,171,0.0,6.0,43,0.00,,CLR,0.00,VWS V14.01,2013-05-04 20:17:00,
2013-05-04 16:22:00,70.4,46.9,30.00,SSE,154,0.0,1.0,43,0.00,,CLR,0.00,VWS V14.01,2013-05-04 20:22:00,
2013-05-04 16:27:00,70.8,47.2,30.00,ENE,71,0.0,1.0,43,0.00,,CLR,0.00,VWS V14.01,2013-05-04 20:27:00,
2013-05-04 16:30:00,70.8,49.0,29.99,NE,54,1.0,3.0,46,0.00,,OVC090,0.00,VWS V14.01,2013-05-04 20:30:00,
2013-05-04 16:32:00,70.9,47.9,29.99,ENE,65,0.0,3.0,44,0.00,,CLR,0.00,VWS V14.01,2013-05-04 20:32:00,
2013-05-04 16:37:00,70.9,47.9,29.99,ENE,76,0.0,3.0,44,0.00,,CLR,0.00,VWS V14.01,2013-05-04 20:37:00,
2013-05-04 16:42:00,70.9,46.7,29.99,East,90,0.0,0.0,42,0.00,,CLR,0.00,VWS V14.01,2013-05-04 20:42:00,
2013-05-04 16:45:00,70.9,47.9,29.99,SE,130,0.0,2.0,44,0.00,,OVC090,0.00,VWS V14.01,2013-05-04 20:45:00,
2013-05-04 16:47:00,70.9,49.1,29.99,South,178,0.0,2.0,46,0.00,,CLR,0.00,VWS V14.01,2013-05-04 20:47:00,
2013-05-04 16:52:00,70.8,46.0,29.99,ESE,109,0.0,1.0,41,0.00,,CLR,0.00,VWS V14.01,2013-05-04 20:52:00,
2013-05-04 16:57:00,71.1,48.7,29.99,ENE,72,1.0,5.0,45,0.00,,CLR,0.00,VWS V14.01,2013-05-04 20:57:00,
2013-05-04 17:00:00,71.1,48.1,29.99,ESE,113,0.0,5.0,44,0.00,,OVC090,0.00,VWS V14.01,2013-05-04 21:00:00,
2013-05-04 17:02:00,71.1,45.6,29.99,ENE,71,0.0,5.0,40,0.00,,CLR,0.00,VWS V14.01,2013-05-04 21:02:00,
2013-05-04 17:07:00,70.9,46.0,29.99,ENE,71,0.0,2.0,41,0.00,,CLR,0.00,VWS V14.01,2013-05-04 21:07:00,
2013-05-04 17:12:00,70.9,45.4,29.99,East,79,0.0,7.0,40,0.00,,CLR,0.00,VWS V14.01,2013-05-04 21:12:00,
2013-05-04 17:15:00,70.9,46.7,29.99,ENE,78,0.0,7.0,42,0.00,,OVC090,0.00,VWS V14.01,2013-05-04 21:15:00,
2013-05-04 17:17:00,70.8,46.6,29.99,East,99,0.0,6.0,42,0.00,,CLR,0.00,VWS V14.01,2013-05-04 21:17:00,
2013-05-04 17:23:00,70.6,46.4,29.99,ENE,68,0.0,3.0,42,0.00,,CLR,0.00,VWS V14.01,2013-05-04 21:23:00,
2013-05-04 17:28:00,70.8,46.6,29.99,ENE,72,0.0,0.0,42,0.00,,CLR,0.00,VWS V14.01,2013-05-04 21:28:00,
2013-05-04 17:30:00,70.8,46.6,29.99,SSE,164,0.0,0.0,42,0.00,,OVC090,0.00,VWS V14.01,2013-05-04 21:30:00,
2013-05-04 17:33:00,70.8,47.8,29.99,SE,141,0.0,5.0,44,0.00,,CLR,0.00,VWS V14.01,2013-05-04 21:33:00,
2013-05-04 17:38:00,70.8,47.2,29.99,East,90,0.0,5.0,43,0.00,,CLR,0.00,VWS V14.01,2013-05-04 21:38:00,
2013-05-04 17:43:00,70.9,47.9,29.99,ESE,119,0.0,1.0,44,0.00,,CLR,0.00,VWS V14.01,2013-05-04 21:43:00,
2013-05-04 17:45:00,70.9,47.3,29.98,ESE,119,0.0,5.0,43,0.00,,OVC090,0.00,VWS V14.01,2013-05-04 21:45:00,
2013-05-04 17:48:00,70.8,47.2,29.98,SSE,152,0.0,5.0,43,0.00,,CLR,0.00,VWS V14.01,2013-05-04 21:48:00,
2013-05-04 17:53:00,70.8,47.8,29.98,SSE,150,0.0,5.0,44,0.00,,CLR,0.00,VWS V14.01,2013-05-04 21:53:00,
2013-05-04 17:58:00,70.6,47.7,29.98,South,174,0.0,5.0,44,0.00,,CLR,0.00,VWS V14.01,2013-05-04 21:58:00,
2013-05-04 18:00:00,70.6,47.7,29.98,ENE,73,0.0,1.0,44,0.00,,OVC090,0.00,VWS V14.01,2013-05-04 22:00:00,
2013-05-04 18:03:00,70.6,47.0,29.98,East,82,0.0,3.0,43,0.00,,CLR,0.00,VWS V14.01,2013-05-04 22:03:00,
2013-05-04 18:08:00,70.6,47.7,29.98,East,92,0.0,3.0,44,0.00,,CLR,0.00,VWS V14.01,2013-05-04 22:08:00,
2013-05-04 18:13:00,70.6,47.0,29.98,ENE,58,0.0,1.0,43,0.00,,CLR,0.00,VWS V14.01,2013-05-04 22:13:00,
2013-05-04 18:15:00,70.6,47.0,29.98,SSW,209,0.0,2.0,43,0.00,,OVC090,0.00,VWS V14.01,2013-05-04 22:15:00,
2013-05-04 18:18:00,70.4,46.9,29.98,South,181,0.0,2.0,43,0.00,,CLR,0.00,VWS V14.01,2013-05-04 22:18:00,
2013-05-04 18:23:00,70.4,46.9,29.98,SSE,157,0.0,0.0,43,0.00,,CLR,0.00,VWS V14.01,2013-05-04 22:23:00,
2013-05-04 18:28:00,70.4,46.9,29.98,ENE,71,0.0,1.0,43,0.00,,CLR,0.00,VWS V14.01,2013-05-04 22:28:00,
2013-05-04 18:30:00,70.4,46.2,29.99,SW,216,0.0,1.0,42,0.00,,OVC090,0.00,VWS V14.01,2013-05-04 22:30:00,
2013-05-04 18:33:00,70.4,46.9,29.99,SE,144,0.0,1.0,43,0.00,,CLR,0.00,VWS V14.01,2013-05-04 22:33:00,
2013-05-04 18:38:00,70.4,46.2,29.99,SE,143,0.0,0.0,42,0.00,,CLR,0.00,VWS V14.01,2013-05-04 22:38:00,
2013-05-04 18:43:00,70.4,46.9,29.99,ENE,76,0.0,2.0,43,0.00,,CLR,0.00,VWS V14.01,2013-05-04 22:43:00,
2013-05-04 18:45:00,70.4,46.9,29.99,ENE,76,0.0,2.0,43,0.00,,OVC090,0.00,VWS V14.01,2013-05-04 22:45:00,
2013-05-04 18:48:00,70.6,45.8,29.99,East,80,1.0,3.0,41,0.00,,CLR,0.00,VWS V14.01,2013-05-04 22:48:00,
2013-05-04 18:53:00,70.6,47.0,29.99,East,82,0.0,3.0,43,0.00,,CLR,0.00,VWS V14.01,2013-05-04 22:53:00,
2013-05-04 18:58:00,70.6,45.8,29.99,ENE,76,0.0,3.0,41,0.00,,CLR,0.00,VWS V14.01,2013-05-04 22:58:00,
2013-05-04 19:00:00,70.6,45.8,29.99,East,80,0.0,3.0,41,0.00,,OVC090,0.00,VWS V14.01,2013-05-04 23:00:00,
2013-05-04 19:04:00,70.4,45.6,29.99,ENE,76,0.0,3.0,41,0.00,,CLR,0.00,VWS V14.01,2013-05-04 23:04:00,
2013-05-04 19:09:00,70.3,44.9,29.99,ENE,76,0.0,0.0,40,0.00,,CLR,0.00,VWS V14.01,2013-05-04 23:09:00,
2013-05-04 19:14:00,70.1,44.0,29.99,East,85,0.0,3.0,39,0.00,,CLR,0.00,VWS V14.01,2013-05-04 23:14:00,
2013-05-04 19:15:00,70.1,44.7,29.99,East,85,0.0,3.0,40,0.00,,OVC090,0.00,VWS V14.01,2013-05-04 23:15:00,
2013-05-04 19:19:00,69.9,43.8,29.99,East,82,0.0,3.0,39,0.00,,CLR,0.00,VWS V14.01,2013-05-04 23:19:00,
2013-05-04 19:24:00,69.8,43.8,29.99,East,79,0.0,2.0,39,0.00,,CLR,0.00,VWS V14.01,2013-05-04 23:24:00,
2013-05-04 19:29:00,69.6,43.6,30.00,East,79,0.0,1.0,39,0.00,,CLR,0.00,VWS V14.01,2013-05-04 23:29:00,
2013-05-04 19:30:00,69.6,44.2,30.00,East,79,0.0,1.0,40,0.00,,OVC090,0.00,VWS V14.01,2013-05-04 23:30:00,
2013-05-04 19:34:00,69.3,43.3,30.00,East,79,0.0,0.0,39,0.00,,CLR,0.00,VWS V14.01,2013-05-04 23:34:00,
2013-05-04 19:39:00,69.1,45.7,30.00,East,79,0.0,0.0,43,0.00,,CLR,0.00,VWS V14.01,2013-05-04 23:39:00,
2013-05-04 19:44:00,68.8,44.2,30.00,East,79,0.0,0.0,41,0.00,,CLR,0.00,VWS V14.01,2013-05-04 23:44:00,
2013-05-04 19:45:00,68.8,44.2,30.00,East,79,0.0,0.0,41,0.00,,OVC090,0.00,VWS V14.01,2013-05-04 23:45:00,
2013-05-04 19:49:00,68.6,44.6,30.00,East,79,0.0,0.0,42,0.00,,CLR,0.00,VWS V14.01,2013-05-04 23:49:00,
2013-05-04 19:54:00,68.3,45.6,30.00,East,80,0.0,0.0,44,0.00,,CLR,0.00,VWS V14.01,2013-05-04 23:54:00,
2013-05-04 19:59:00,67.9,44.6,30.00,East,80,0.0,0.0,43,0.00,,CLR,0.00,VWS V14.01,2013-05-04 23:59:00,
2013-05-04 20:00:00,67.9,44.6,30.00,East,80,0.0,0.0,43,0.00,,OVC090,0.00,VWS V14.01,2013-05-05 00:00:00,
2013-05-04 20:04:00,67.6,44.3,30.00,East,80,0.0,0.0,43,0.00,,BKN080,0.00,VWS V14.01,2013-05-05 00:04:00,
2013-05-04 20:09:00,67.1,43.9,30.00,East,80,0.0,0.0,43,0.00,,BKN080,0.00,VWS V14.01,2013-05-05 00:09:00,
2013-05-04 20:14:00,66.8,44.2,30.01,East,80,0.0,0.0,44,0.00,,BKN080,0.00,VWS V14.01,2013-05-05 00:14:00,
2013-05-04 20:15:00,66.8,44.2,30.01,East,80,0.0,0.0,44,0.00,,OVC090,0.00,VWS V14.01,2013-05-05 00:15:00,
2013-05-04 20:19:00,66.4,43.8,30.01,East,80,0.0,0.0,44,0.00,,BKN080,0.00,VWS V14.01,2013-05-05 00:19:00,
2013-05-04 20:24:00,66.1,44.2,30.01,East,80,0.0,0.0,45,0.00,,BKN080,0.00,VWS V14.01,2013-05-05 00:24:00,
2013-05-04 20:29:00,65.8,44.5,30.01,East,80,0.0,0.0,46,0.00,,BKN080,0.00,VWS V14.01,2013-05-05 00:29:00,
2013-05-04 20:30:00,65.8,44.5,30.01,East,80,0.0,0.0,46,0.00,,OVC090,0.00,VWS V14.01,2013-05-05 00:30:00,
2013-05-04 20:34:00,65.5,43.6,30.01,East,80,0.0,0.0,45,0.00,,BKN080,0.00,VWS V14.01,2013-05-05 00:34:00,
2013-05-04 20:39:00,65.2,45.6,30.01,East,80,0.0,0.0,49,0.00,,BKN080,0.00,VWS V14.01,2013-05-05 00:39:00,
2013-05-04 20:44:00,64.7,45.7,30.01,East,80,0.0,0.0,50,0.00,,BKN080,0.00,VWS V14.01,2013-05-05 00:44:00,
2013-05-04 20:45:00,64.7,45.7,30.01,East,80,0.0,0.0,50,0.00,,OVC090,0.00,VWS V14.01,2013-05-05 00:45:00,
2013-05-04 20:49:00,64.2,45.2,30.01,East,80,0.0,0.0,50,0.00,,BKN080,0.00,VWS V14.01,2013-05-05 00:49:00,
2013-05-04 20:54:00,63.7,45.2,30.01,East,80,0.0,0.0,51,0.00,,BKN080,0.00,VWS V14.01,2013-05-05 00:54:00,
2013-05-04 20:59:00,63.2,45.3,30.02,East,80,0.0,0.0,52,0.00,,BKN080,0.00,VWS V14.01,2013-05-05 00:59:00,
2013-05-04 21:00:00,63.2,45.3,30.02,East,80,0.0,0.0,52,0.00,,OVC090,0.00,VWS V14.01,2013-05-05 01:00:00,
2013-05-04 21:05:00,62.7,45.8,30.02,East,80,0.0,0.0,54,0.00,,CLR,0.00,VWS V14.01,2013-05-05 01:05:00,
2013-05-04 21:10:00,62.1,45.8,30.02,East,80,0.0,0.0,55,0.00,,CLR,0.00,VWS V14.01,2013-05-05 01:10:00,
2013-05-04 21:15:00,61.5,45.7,30.02,East,80,0.0,0.0,56,0.00,,CLR,0.00,VWS V14.01,2013-05-05 01:15:00,
2013-05-04 21:20:00,60.9,46.0,30.02,East,80,0.0,1.0,58,0.00,,CLR,0.00,VWS V14.01,2013-05-05 01:20:00,
2013-05-04 21:25:00,60.5,45.7,30.02,East,80,0.0,0.0,58,0.00,,CLR,0.00,VWS V14.01,2013-05-05 01:25:00,
2013-05-04 21:30:00,60.1,46.2,30.02,East,80,0.0,0.0,60,0.00,,CLR,0.00,VWS V14.01,2013-05-05 01:30:00,
2013-05-04 21:35:00,59.3,45.9,30.02,East,80,0.0,0.0,61,0.00,,CLR,0.00,VWS V14.01,2013-05-05 01:35:00,
2013-05-04 21:40:00,58.9,45.5,30.02,East,80,0.0,0.0,61,0.00,,CLR,0.00,VWS V14.01,2013-05-05 01:40:00,
2013-05-04 21:45:00,58.6,44.8,30.03,East,80,0.0,0.0,60,0.00,,CLR,0.00,VWS V14.01,2013-05-05 01:45:00,
2013-05-04 21:50:00,58.3,44.5,30.03,East,80,0.0,0.0,60,0.00,,CLR,0.00,VWS V14.01,2013-05-05 01:50:00,
2013-05-04 21:55:00,58.1,44.3,30.03,East,80,0.0,0.0,60,0.00,,CLR,0.00,VWS V14.01,2013-05-05 01:55:00,
2013-05-04 22:00:00,58.0,44.2,30.03,East,80,0.0,0.0,60,0.00,,CLR,0.00,VWS V14.01,2013-05-05 02:00:00,
2013-05-04 22:05:00,58.0,43.8,30.03,East,80,0.0,0.0,59,0.00,,CLR,0.00,VWS V14.01,2013-05-05 02:05:00,
2013-05-04 22:10:00,57.8,43.6,30.03,East,80,0.0,0.0,59,0.00,,CLR,0.00,VWS V14.01,2013-05-05 02:10:00,
2013-05-04 22:15:00,57.6,43.4,30.02,East,80,0.0,0.0,59,0.00,,CLR,0.00,VWS V14.01,2013-05-05 02:15:00,
2013-05-04 22:20:00,57.5,43.3,30.02,East,80,0.0,0.0,59,0.00,,CLR,0.00,VWS V14.01,2013-05-05 02:20:00,
2013-05-04 22:25:00,57.3,43.1,30.02,East,80,0.0,0.0,59,0.00,,CLR,0.00,VWS V14.01,2013-05-05 02:25:00,
2013-05-04 22:30:00,57.3,43.1,30.03,ENE,65,0.0,0.0,59,0.00,,CLR,0.00,VWS V14.01,2013-05-05 02:30:00,
2013-05-04 22:35:00,57.2,43.0,30.03,ENE,65,0.0,0.0,59,0.00,,CLR,0.00,VWS V14.01,2013-05-05 02:35:00,
2013-05-04 22:40:00,57.2,43.5,30.03,ENE,65,0.0,0.0,60,0.00,,CLR,0.00,VWS V14.01,2013-05-05 02:40:00,
2013-05-04 22:45:00,57.0,43.3,30.03,ENE,65,0.0,0.0,60,0.00,,CLR,0.00,VWS V14.01,2013-05-05 02:45:00,
2013-05-04 22:50:00,56.9,43.2,30.03,ENE,64,0.0,0.0,60,0.00,,CLR,0.00,VWS V14.01,2013-05-05 02:50:00,
2013-05-04 22:56:00,56.7,43.0,30.03,ENE,64,0.0,0.0,60,0.00,,CLR,0.00,VWS V14.01,2013-05-05 02:56:00,
2013-05-04 23:00:00,56.6,42.9,30.03,ENE,64,0.0,0.0,60,0.00,,OVC090,0.00,VWS V14.01,2013-05-05 03:00:00,
2013-05-04 23:01:00,56.6,42.9,30.03,ENE,64,0.0,0.0,60,0.00,,CLR,0.00,VWS V14.01,2013-05-05 03:01:00,
2013-05-04 23:06:00,56.5,42.8,30.03,ENE,61,0.0,1.0,60,0.00,,CLR,0.00,VWS V14.01,2013-05-05 03:06:00,
2013-05-04 23:11:00,56.3,42.6,30.03,ENE,59,0.0,2.0,60,0.00,,CLR,0.00,VWS V14.01,2013-05-05 03:11:00,
2013-05-04 23:15:00,56.3,42.6,30.03,ENE,59,2.0,2.0,60,0.00,,OVC090,0.00,VWS V14.01,2013-05-05 03:15:00,
2013-05-04 23:16:00,56.2,42.5,30.03,ENE,59,0.0,2.0,60,0.00,,CLR,0.00,VWS V14.01,2013-05-05 03:16:00,
2013-05-04 23:21:00,56.2,42.1,30.03,ENE,58,0.0,2.0,59,0.00,,CLR,0.00,VWS V14.01,2013-05-05 03:21:00,
2013-05-04 23:26:00,56.2,42.5,30.03,NE,51,0.0,3.0,60,0.00,,CLR,0.00,VWS V14.01,2013-05-05 03:26:00,
2013-05-04 23:30:00,56.2,42.1,30.03,ENE,71,1.0,3.0,59,0.00,,OVC090,0.00,VWS V14.01,2013-05-05 03:30:00,
2013-05-04 23:31:00,56.2,42.1,30.03,NE,47,0.0,3.0,59,0.00,,CLR,0.00,VWS V14.01,2013-05-05 03:31:00,
2013-05-04 23:36:00,56.2,42.5,30.03,ENE,68,0.0,3.0,60,0.00,,CLR,0.00,VWS V14.01,2013-05-05 03:36:00,
2013-05-04 23:41:00,56.2,42.5,30.03,East,85,0.0,6.0,60,0.00,,CLR,0.00,VWS V14.01,2013-05-05 03:41:00,
2013-05-04 23:45:00,56.5,41.9,30.03,NE,55,0.0,6.0,58,0.00,,OVC090,0.00,VWS V14.01,2013-05-05 03:45:00,
2013-05-04 23:46:00,56.7,41.7,30.03,NE,55,1.0,6.0,57,0.00,,CLR,0.00,VWS V14.01,2013-05-05 03:46:00,
2013-05-04 23:51:00,57.3,41.8,30.03,East,82,4.0,5.0,56,0.00,,CLR,0.00,VWS V14.01,2013-05-05 03:51:00,
2013-05-04 23:56:00,58.3,41.8,30.03,East,90,2.0,5.0,54,0.00,,CLR,0.00,VWS V14.01,2013-05-05 03:56:00,